Content
SEND FEEDBACK

Daily
Averages
Monthly
Summary
United States of America

CHICAGO, ILLINOIS


Home > North America > United States > Illinois
Elevation: 205 meters     Latitude: 41 59N     Longitude: 087 54W

WEATHER
 
SELECT A DAY
Number of Records: 194,730;   Date Range: 7/8/95 - 7/7/14
 
SHARE

PRINT THIS DATA

[ ← Previous Day ]
WEATHER ALMANAC - 15 SEPTEMBER, 2013
[ Next Day → ]
[ °F ]   °C
Weather ElementAverageHighLow
Temperature14.7 °C17 °C (11:25 pm)13 °C (8:09 am)
Dewpoint11.8 °C14 °C (10:19 pm)5 °C (2:52 am)
Humidity84.3 %94 % (10:34 am)48 % (2:52 am)
Barometer1018.6 hPa1022 hPa (11:52 pm)1016.6 hPa (1:52 pm)
Wind Speed6.3 km/h16.7 km/h (11:52 pm)
Weather ElementAverage
Visibility10 km
Wind DirectionSE (133.1 °)

Weather ElementTotal
Precipitation40.13 mm
Heating Degree Days3.3 (Base 18.3)
Growing Degree Days5 (Base 10)
Averaged from 45 records on 15 September, 2013
WEATHER CONDITIONS BREAKOUT
WIND DIRECTION BREAKOUT
WEATHER BY HOUR - 15 SEPTEMBER, 2013
[ °F ]   °C
Local TimeTemperatureDewpointHumidityBarometerVisibilityWind DirectionWind SpeedGust SpeedPrecipitationEventsConditions
1:52 AM14.4 °C5.6 °C56 %1017.3 hPa16.1 kmSouth (180°)7.4 km/hClear
2:52 AM16.1 °C5 °C48 %1017.3 hPa16.1 kmSSW (210°)9.3 km/hClear
3:52 AM16.1 °C5.6 °C50 %1017.9 hPa16.1 kmSouth (190°)5.6 km/hClear
4:52 AM16.1 °C6.1 °C52 %1017.9 hPa16.1 kmSouth (180°)5.6 km/hPartly Cloudy
5:52 AM16.1 °C7.2 °C56 %1017.9 hPa16.1 kmSouth (190°)5.6 km/hMostly Cloudy
6:52 AM15 °C8.9 °C67 %1017.9 hPa12.9 kmCalm0.51 mmRainLight Rain
7:52 AM13.3 °C11.1 °C87 %1018.3 hPa8 kmCalm1.78 mmRainLight Rain
8:09 AM13 °C10 °C82 %1017.9 hPa3.2 kmCalm1.02 mmRainLight Rain
8:17 AM13 °C11 °C88 %1017.6 hPa9.7 kmCalm1.27 mmRainLight Rain
8:52 AM13.3 °C11.1 °C87 %1018.3 hPa9.7 kmNorth (350°)5.6 km/h2.79 mmRainLight Rain
9:52 AM13.3 °C11.1 °C87 %1017.9 hPa9.7 kmESE (110°)5.6 km/h2.79 mmRainLight Rain
10:28 AM13 °C11 °C88 %1017.6 hPa2.9 kmEast (90°)7.4 km/h3.3 mmRainRain
10:34 AM13 °C12 °C94 %1017.6 hPa4.8 kmESE (110°)7.4 km/h3.56 mmRainLight Rain
10:42 AM13 °C12 °C94 %1017.6 hPa3.2 kmESE (120°)7.4 km/h3.81 mmRainLight Rain
10:52 AM13.3 °C11.7 °C90 %1017.6 hPa6.4 kmSE (130°)7.4 km/h4.32 mmRainLight Rain
11:52 AM13.9 °C11.7 °C87 %1017.9 hPa8 kmSSE (150°)9.3 km/h2.03 mmRainLight Rain
12:52 PM13.9 °C12.2 °C89 %1017.3 hPa9.7 kmSSE (150°)11.1 km/h0.25 mmRainLight Rain
1:52 PM14.4 °C12.8 °C90 %1016.6 hPa9.7 kmEast (80°)5.6 km/h1.02 mmRainLight Rain
2:30 PM14 °C13 °C94 %1017.9 hPa3.2 kmNorth (10°)7.4 km/h0.51 mmRainLight Rain
2:52 PM14.4 °C12.8 °C90 %1016.9 hPa3.2 kmSE (130°)13 km/h4.32 mmRainRain
3:31 PM14 °C13 °C94 %1017.6 hPa3.2 kmSE (140°)5.6 km/h2.03 mmRainLight Rain
3:52 PM14.4 °C12.8 °C90 %1017.6 hPa3.2 kmCalm2.79 mmRainLight Rain
3:59 PM14 °C13 °C94 %1017.6 hPa6.4 kmCalm0 mmRainLight Rain
4:34 PM15 °C13 °C88 %1017.6 hPa4 kmSouth (190°)5.6 km/h0.51 mmRainLight Rain
4:42 PM15 °C13 °C88 %1017.6 hPa4.8 kmCalm0.76 mmRainLight Rain
4:52 PM15 °C13.3 °C90 %1017.6 hPa6.4 kmCalm0.76 mmRainLight Rain
5:01 PM15 °C13 °C88 %1017.9 hPa4.8 kmCalm0 mmRainLight Rain
5:14 PM15 °C13 °C88 %1017.9 hPa4.8 kmCalm0 mmOvercast
5:39 PM15 °C13 °C88 %1018.3 hPa8 kmCalm0 mmOvercast
5:52 PM15 °C13.3 °C90 %1018.3 hPa6.4 kmCalm0 mmOvercast
6:34 PM15 °C13 °C88 %1018.6 hPa11.3 kmNNW (340°)9.3 km/hMostly Cloudy
6:52 PM14.4 °C12.8 °C90 %1019 hPa11.3 kmNorth (350°)5.6 km/hScattered Clouds
7:19 PM14 °C13 °C94 %1019 hPa12.9 kmNNW (340°)7.4 km/hOvercast
7:52 PM15 °C13.3 °C90 %1019.6 hPa14.5 kmNNW (340°)5.6 km/hOvercast
8:33 PM15 °C13 °C88 %1020 hPa16.1 kmNNE (20°)7.4 km/hOvercast
8:52 PM15 °C13.3 °C90 %1020.3 hPa14.5 kmNorth (350°)9.3 km/hOvercast
9:07 PM15 °C13 °C88 %1020.7 hPa14.5 kmNorth (350°)9.3 km/hOvercast
9:36 PM15 °C13 °C88 %1020.7 hPa14.5 kmNorth (360°)9.3 km/hOvercast
9:52 PM15 °C13.3 °C90 %1020.7 hPa12.9 kmNorth (360°)7.4 km/hOvercast
10:19 PM15 °C14 °C94 %1021 hPa8 kmNorth (360°)9.3 km/h0 mmRainLight Rain
10:48 PM16 °C14 °C88 %1021.3 hPa16.1 kmNNE (20°)14.8 km/h0 mmOvercast
10:52 PM16.1 °C13.9 °C87 %1021.3 hPa16.1 kmNorth (10°)14.8 km/h0 mmOvercast
11:25 PM17 °C14 °C82 %1021.7 hPa16.1 kmNNE (20°)13 km/h0 mmOvercast
11:34 PM17 °C14 °C82 %1021.7 hPa16.1 kmNNE (30°)13 km/h0 mmOvercast
11:52 PM16.7 °C13.3 °C80 %1022 hPa16.1 kmNNE (30°)16.7 km/h0 mmOvercast
Hourly data recorded from KPWK, located 0 kilometers away from Chicago, Illinois







STORIES FROM OUR PARTNERS